Powrót do katalogu

STARLINK-34117

AktywnyŁącznośćVLEO
NORAD 64040·PAYLOAD·🇺🇸 United States

Wystrzelony May 16, 2025 z Vandenberg Space Force Base

Loading…

Następne Przeloty (najbliższe 24 godziny)

TLE

ŚwieżeSource: CelesTrak SupGP

Epoka: Sep 15, 2026, 02:54 UTC

1 64040C 25102U   26258.12131944  .00042706  00000+0  14885-2 0  2586
2 64040  70.0010 355.0647 0003133 265.5690  11.2500 15.29493975    11

Śledź STARLINK-34117 w czasie rzeczywistym z AllMySat

Download on the App Store